Theta_e
304 303 302 303 303 302 303 304 303 303 303 303 301 300 299 299 300 301 301 300 299 299 298 298 298 298 299 300 299 300 301 301 304 308 308 308 306 305 304 303 303 304 305 307 308 310 313 313 312 313 314 315 316 317 318 320 321 321 321 320 319 320 321 324 324 325 325 323 322 323 325 325 325 326 326 327 326 327 329 329 331 333 335 337 341 346 348 345
304 304 302 302 301 301 302 304 303 303 304 304 303 302 300 299 298 299 301 301 301 299 297 298 298 298 299 299 299 299 299 302 307 309 308 307 305 304 303 303 303 303 304 305 309 313 314 314 314 313 315 316 316 318 319 319 320 321 321 320 320 322 323 325 325 325 325 323 322 324 325 325 325 326 327 326 325 327 327 328 332 332 335 339 343 348 348 344
304 303 303 302 301 301 303 304 303 303 303 303 302 302 302 301 299 298 299 299 300 300 299 298 298 299 299 299 299 298 301 305 309 310 309 307 306 304 304 303 303 303 303 304 310 315 316 315 314 314 315 316 317 318 319 320 320 321 321 321 321 322 324 325 325 325 325 325 324 323 324 325 324 325 326 326 325 326 327 327 330 332 334 339 343 347 348 346
303 304 304 303 302 302 303 302 303 303 303 302 301 301 301 301 300 300 299 298 298 299 299 299 298 299 299 299 299 298 305 309 311 313 310 307 307 306 305 305 305 304 304 307 310 315 317 316 314 314 316 316 317 318 319 320 320 321 321 321 322 323 324 324 326 325 325 324 323 323 324 325 324 324 325 326 325 325 326 327 327 329 331 336 341 345 347 348
302 303 303 303 303 303 302 302 303 303 302 302 301 301 301 301 301 300 299 298 298 298 299 299 299 299 299 299 298 301 308 310 311 315 311 305 305 306 306 305 305 304 305 310 313 315 316 316 314 314 316 316 317 318 319 320 320 320 321 322 323 323 323 324 325 324 325 324 324 323 322 324 324 324 325 324 325 325 325 326 327 326 326 333 338 342 346 348
302 302 302 303 303 304 303 303 303 302 302 302 302 301 301 301 301 301 300 299 298 298 298 298 298 299 299 299 299 304 309 308 309 311 308 304 302 305 308 306 305 305 307 313 316 316 316 315 314 315 316 317 317 318 319 320 319 320 320 322 322 323 323 324 324 324 324 324 324 323 322 324 324 323 325 324 324 325 325 325 327 327 325 329 336 340 346 348
302 302 302 302 302 303 303 303 302 302 302 302 302 302 301 301 301 302 302 301 299 298 298 298 298 299 298 298 302 307 309 308 308 308 306 303 302 304 307 308 306 305 309 314 316 317 316 314 313 314 316 316 317 318 318 319 320 319 319 322 322 322 323 323 324 324 324 324 324 324 323 324 324 323 324 323 323 324 324 325 325 325 324 327 333 339 345 349
303 303 302 302 302 302 302 302 302 302 302 301 302 301 301 301 301 302 301 302 301 299 298 298 298 298 297 300 306 309 308 308 308 307 304 302 303 303 305 306 306 306 308 313 316 317 316 314 313 313 315 315 316 317 318 319 319 319 319 321 322 322 323 322 323 323 324 324 323 324 323 324 323 323 324 323 323 323 323 325 325 324 324 326 331 338 346 349
304 303 303 303 302 302 302 302 302 302 302 301 301 301 301 301 301 301 301 301 301 300 298 297 298 298 298 303 308 308 307 307 306 305 304 303 304 303 303 304 305 306 307 310 314 317 316 314 313 313 314 315 317 317 318 318 318 319 319 321 321 321 323 322 322 323 323 323 324 324 323 323 323 322 323 323 323 323 323 325 326 325 325 328 331 339 348 350
303 303 303 303 303 303 303 302 302 302 302 302 301 301 301 301 301 301 301 301 301 301 299 298 298 297 300 306 308 307 307 306 305 304 304 304 303 303 303 304 304 306 307 308 311 315 316 315 313 313 314 315 316 316 318 318 318 320 319 321 321 320 322 322 322 322 323 323 323 323 322 323 324 322 322 323 323 323 324 326 326 325 325 329 335 342 349 351
302 303 303 303 303 303 303 303 303 303 303 303 302 301 301 301 301 301 301 301 301 301 299 298 298 298 302 306 306 307 306 305 304 304 304 304 302 303 304 305 305 305 306 308 309 312 315 315 313 313 313 314 315 316 317 317 318 320 319 320 320 320 321 322 322 322 322 323 323 323 322 322 323 321 322 323 323 323 326 328 326 325 325 330 337 344 349 352
302 303 303 303 303 303 303 303 304 304 304 303 303 302 302 301 301 300 300 300 300 300 299 298 298 301 304 306 306 306 305 304 304 304 304 303 302 303 304 304 305 305 306 307 309 311 312 314 313 313 313 314 314 316 316 317 318 318 318 319 319 319 320 321 322 322 322 321 323 323 320 321 322 321 323 322 323 326 328 328 325 324 326 329 337 342 347 353
303 304 303 303 303 303 303 303 303 303 304 304 303 302 302 302 301 300 299 299 299 298 298 298 299 302 305 306 306 305 304 304 304 304 303 301 302 304 304 305 305 305 306 306 308 310 312 313 313 313 314 314 315 315 316 317 318 318 318 318 318 318 318 320 322 322 321 321 323 322 317 318 321 321 323 321 324 329 329 327 325 325 326 329 335 340 344 351
304 304 303 303 304 303 303 303 303 303 303 303 303 303 302 302 300 299 298 298 298 298 298 297 300 303 305 306 305 304 304 304 303 303 303 303 304 305 305 306 306 306 306 306 307 309 311 312 312 313 314 315 315 315 315 316 316 317 316 317 318 315 316 319 321 321 320 320 322 321 316 317 321 322 323 322 322 327 329 328 326 325 327 329 333 338 343 349
303 303 303 303 304 304 303 303 303 303 303 303 303 303 302 302 300 298 298 298 298 298 298 299 301 304 306 306 306 305 304 302 302 303 304 305 305 305 306 306 306 306 306 306 307 308 310 312 312 313 314 315 315 315 314 315 316 316 314 315 316 314 315 319 321 320 319 320 322 320 316 317 321 321 322 323 322 324 328 328 326 325 328 329 333 337 341 347
302 302 302 302 303 303 303 303 303 303 303 303 303 302 302 301 299 298 298 299 299 299 300 303 304 305 306 306 305 305 304 303 304 305 305 305 305 305 305 306 306 306 307 307 307 308 310 312 312 313 314 315 314 314 314 313 314 315 314 313 314 314 315 318 319 320 319 320 321 319 317 318 321 322 323 322 322 326 329 328 326 326 328 330 333 337 340 345
302 302 301 301 302 302 303 303 303 303 304 303 303 302 301 300 300 301 301 301 302 302 303 305 305 305 306 305 304 304 304 304 304 304 304 305 305 305 305 305 306 306 307 307 307 309 310 312 312 312 313 313 313 313 313 312 312 314 314 314 315 315 315 316 318 320 320 319 320 319 319 319 320 322 322 324 326 330 330 327 326 327 328 331 332 335 338 343
301 301 301 301 300 301 302 303 303 303 304 303 303 302 301 301 303 304 304 304 304 304 304 305 304 305 305 305 305 305 305 304 304 303 303 304 304 304 304 305 306 306 307 307 308 309 310 312 312 311 312 312 313 313 313 313 312 313 314 313 314 315 315 316 317 319 320 319 319 319 319 319 320 321 324 331 333 331 329 326 326 327 328 329 331 333 337 341
302 301 301 301 301 301 300 301 303 303 303 303 303 302 302 304 305 305 306 305 305 305 306 306 305 306 306 305 305 304 304 304 304 303 303 303 303 304 305 305 306 307 307 308 308 309 310 311 312 311 311 311 313 313 313 314 314 314 314 314 314 314 315 317 318 319 320 319 318 319 319 319 320 319 323 331 334 331 328 326 325 325 326 327 330 333 336 340
302 301 300 300 301 301 300 300 301 302 303 302 303 304 304 306 307 307 306 305 305 306 306 306 306 306 306 306 305 305 304 304 304 304 305 304 303 304 305 305 306 306 307 308 309 310 310 311 311 311 311 312 313 313 314 315 315 315 315 315 315 314 315 318 319 320 320 318 318 319 318 320 320 320 321 326 330 331 328 326 326 326 327 328 330 334 338 340
302 302 301 300 300 301 301 301 301 301 302 302 304 305 305 305 305 306 305 305 305 305 305 305 305 305 305 305 305 305 305 305 305 305 306 305 304 303 304 305 306 306 307 308 310 310 310 310 311 311 311 312 313 313 314 314 315 315 315 315 314 314 315 318 319 319 320 319 318 319 318 319 320 320 321 322 327 330 328 327 327 327 328 329 331 335 339 341
302 302 301 300 301 301 301 301 301 301 301 302 304 305 304 304 304 304 304 304 305 305 305 305 305 305 305 305 305 304 304 305 305 305 306 305 304 304 305 305 306 306 306 308 309 310 310 310 311 312 312 312 313 313 314 314 315 315 315 314 313 315 315 317 319 319 319 318 318 319 318 319 320 320 321 322 323 327 329 329 327 326 328 329 330 334 339 340
301 301 300 300 301 301 301 302 302 302 302 303 305 305 303 303 303 303 304 304 305 305 305 305 305 305 305 305 305 305 305 305 304 305 305 305 305 305 305 305 305 306 306 307 308 310 310 310 311 312 312 312 313 314 314 314 314 314 315 314 313 315 315 314 317 319 319 319 319 319 318 318 320 320 321 322 322 323 328 329 326 325 327 329 330 333 338 340
300 300 300 301 301 301 302 302 303 303 304 304 304 304 303 303 303 304 304 304 304 305 306 305 305 305 305 305 305 305 305 305 304 304 304 304 305 305 304 305 305 306 306 306 307 308 310 311 312 312 312 313 313 314 314 313 313 314 314 314 314 316 315 315 317 318 319 318 319 318 316 317 319 320 320 321 321 321 326 329 327 326 326 328 329 332 338 340
300 299 301 301 301 301 302 303 304 304 304 304 304 304 303 303 304 304 304 304 305 306 305 304 303 304 305 304 304 304 304 304 304 304 304 304 305 305 304 304 305 305 306 306 307 308 309 311 312 311 312 313 313 313 314 313 313 313 314 315 315 316 317 317 317 317 315 315 317 317 313 314 318 319 320 320 321 320 324 329 328 326 326 328 328 331 338 340
299 299 301 301 301 302 302 304 304 304 304 304 304 303 303 303 304 303 304 304 305 306 305 304 304 304 304 305 305 304 304 304 305 304 304 304 305 304 304 304 304 305 306 307 307 308 309 311 312 311 311 312 312 313 314 314 313 312 314 315 316 317 317 317 317 315 312 312 317 317 313 312 315 317 319 320 320 320 322 328 330 328 326 327 327 332 339 342
300 300 302 303 303 302 302 304 303 303 304 304 304 303 303 304 303 303 304 305 305 305 304 304 304 304 304 305 305 305 304 305 305 304 304 304 304 304 303 304 304 305 307 307 307 308 309 310 311 311 311 312 312 313 314 314 313 313 315 315 316 317 316 317 317 314 314 314 316 317 314 312 312 315 319 321 319 319 323 328 331 330 329 328 330 335 342 343
300 301 303 304 304 303 302 303 303 303 304 304 304 303 303 303 303 303 304 305 306 304 304 304 304 304 304 304 305 305 305 305 304 304 304 304 304 304 303 303 304 305 306 307 307 308 309 310 311 311 311 312 312 313 314 314 313 314 316 316 315 316 316 317 316 314 315 315 313 314 315 313 311 315 319 321 319 318 324 329 330 332 333 332 333 338 342 343
300 302 304 305 304 304 303 303 303 304 303 304 304 303 303 303 303 303 304 305 306 304 304 304 304 304 305 305 305 305 305 305 305 304 304 304 304 304 303 304 305 305 306 307 307 308 310 311 312 312 311 311 312 313 314 314 314 315 316 316 315 315 316 317 316 314 314 315 313 313 315 313 312 314 317 319 318 318 324 328 329 332 334 333 334 337 340 342
300 303 305 305 304 304 304 304 304 304 304 304 304 303 304 303 303 305 305 305 305 304 305 305 304 305 306 305 305 305 305 305 306 305 305 304 304 304 304 304 305 305 306 307 307 309 310 311 312 312 312 312 313 313 314 314 314 315 316 315 315 315 315 316 315 314 314 314 314 313 315 314 312 313 316 317 318 320 323 326 329 332 332 333 335 336 338 341
301 304 305 304 304 304 304 305 304 304 304 304 304 304 304 304 303 305 306 306 304 304 305 305 305 305 305 304 305 305 305 305 306 305 305 304 304 303 304 305 305 306 306 306 307 308 310 311 311 312 313 313 313 312 313 314 314 314 314 314 313 313 314 314 313 314 315 314 313 314 315 313 311 313 318 319 320 321 323 325 328 331 331 333 336 335 336 340
302 305 305 304 304 304 304 305 304 304 304 304 304 304 304 304 304 305 306 305 305 305 305 305 305 304 305 305 305 306 306 306 305 305 304 304 303 303 304 305 305 306 306 306 307 309 310 310 310 311 313 313 312 311 312 313 313 313 314 313 312 312 312 312 311 312 313 313 313 315 314 312 313 316 320 321 320 321 325 326 328 330 331 333 334 334 335 339
303 305 305 305 305 305 305 305 304 304 304 304 304 304 303 304 306 306 306 306 306 306 306 306 305 305 305 306 306 306 306 306 305 305 305 304 303 303 303 305 306 306 307 307 306 309 310 311 310 311 312 313 313 311 311 311 311 313 313 312 312 311 313 314 313 313 314 313 314 315 314 313 315 319 322 322 320 322 325 328 328 329 331 331 330 331 334 339
303 305 306 306 306 305 305 304 304 304 304 304 304 304 304 305 306 306 306 306 306 306 306 306 306 306 306 306 306 306 306 305 304 304 304 304 303 304 304 305 306 307 308 308 307 309 311 312 311 310 311 312 313 312 312 311 311 313 313 314 313 312 314 315 314 314 314 314 314 315 316 314 314 319 322 322 321 322 326 327 328 328 329 330 328 328 333 336
304 306 307 307 307 306 306 305 304 304 304 304 304 304 305 306 306 305 306 306 306 306 305 306 306 306 306 306 306 307 306 305 304 304 304 304 304 305 305 305 306 308 308 308 309 309 310 312 311 311 312 312 313 312 313 312 311 313 314 314 313 313 315 314 313 315 314 314 314 314 315 316 318 323 325 324 322 322 327 328 327 328 329 330 327 326 330 334
304 307 308 308 307 307 306 305 305 304 304 304 304 304 305 306 306 305 305 305 305 305 305 306 306 306 306 306 306 306 305 304 305 305 305 305 305 306 306 306 307 307 307 308 309 310 310 311 310 311 312 312 313 313 313 313 311 313 313 312 314 316 316 313 313 316 315 314 314 314 314 315 318 322 324 324 323 323 326 328 327 328 328 329 328 327 328 333
305 307 308 308 307 306 306 305 305 304 304 304 304 305 305 306 306 306 305 305 305 305 305 306 306 305 306 306 306 306 304 305 305 305 305 305 306 306 306 307 308 308 308 308 309 310 311 311 311 310 311 312 313 313 313 313 313 312 312 313 315 316 317 315 314 315 315 313 314 313 313 314 315 317 322 324 324 322 325 326 326 327 327 327 326 326 328 333
305 306 308 308 307 306 305 305 305 304 304 304 304 305 306 306 306 307 306 306 305 305 305 305 306 305 305 306 307 305 304 305 305 305 306 306 307 307 307 308 308 308 308 309 309 310 311 311 311 310 311 312 312 313 312 313 314 313 312 314 315 313 314 314 314 315 315 314 314 314 315 314 313 316 321 324 323 324 325 325 324 324 324 325 327 328 330 334
306 307 308 308 306 306 305 304 305 304 304 304 305 306 306 306 307 308 307 307 305 305 305 305 306 305 305 307 307 305 305 305 305 306 307 307 307 308 307 308 308 308 309 309 309 310 311 312 311 310 311 312 311 312 312 312 313 313 313 314 313 313 313 314 315 315 314 314 314 314 316 315 315 318 322 324 324 324 325 325 324 324 325 327 330 331 332 335
307 308 309 308 306 306 305 305 305 304 304 305 306 307 307 306 307 308 308 307 306 305 305 306 306 306 306 307 307 306 305 305 305 306 307 307 308 308 308 308 308 308 309 309 310 310 310 312 312 311 311 312 311 312 312 312 312 312 312 312 312 313 314 314 315 314 314 314 314 315 315 315 318 321 322 324 324 324 324 325 325 325 327 329 330 331 333 335
307 310 310 308 306 305 305 305 305 306 305 307 307 307 307 307 308 308 308 308 307 306 306 306 307 307 307 308 307 307 307 306 305 306 306 307 308 308 308 309 308 308 309 309 309 310 310 311 312 311 311 311 311 312 313 313 313 312 312 312 312 313 312 313 313 314 314 313 313 315 314 314 320 323 322 323 324 324 323 324 325 326 326 327 329 331 332 334
308 310 310 307 305 305 305 305 307 307 306 307 308 308 308 308 308 309 309 308 308 307 307 307 307 308 308 308 308 307 307 307 306 306 307 307 307 308 308 309 309 309 309 308 309 311 311 312 312 311 311 311 312 312 313 313 313 313 313 313 314 314 313 312 313 314 314 313 314 314 312 315 321 323 322 323 324 324 324 324 325 325 324 326 329 329 330 335
308 309 309 307 305 306 306 307 308 308 308 309 309 309 309 309 309 309 308 308 308 308 308 308 308 308 308 308 308 307 307 307 306 306 307 307 307 308 309 309 309 308 308 309 309 311 312 312 312 311 311 311 312 312 313 313 313 313 313 314 314 315 315 314 315 316 315 313 313 313 313 315 322 324 322 323 323 323 324 324 324 325 323 323 325 326 330 337
307 309 309 308 306 306 307 307 308 308 308 309 309 309 310 310 309 309 308 308 308 308 308 309 309 309 309 308 308 308 308 307 307 306 307 307 308 309 309 309 309 308 309 309 310 310 311 311 312 311 311 312 312 312 312 313 313 312 313 314 314 315 315 316 316 316 315 313 313 313 313 316 321 323 322 323 322 321 324 326 330 333 332 327 325 328 335 339
307 309 310 309 307 307 307 307 307 306 307 307 308 309 310 310 310 310 309 309 308 308 308 309 309 309 309 308 308 308 308 308 309 308 307 308 308 309 309 309 309 309 309 310 310 310 311 311 312 312 311 312 312 312 312 312 313 313 313 313 314 314 315 315 315 314 314 314 313 313 314 317 321 323 322 323 323 322 325 327 329 333 335 332 331 334 337 339
308 309 308 309 308 308 308 308 307 306 306 306 307 309 310 310 311 311 310 310 308 307 307 308 309 310 309 309 309 308 308 308 309 309 308 308 308 308 309 309 309 309 310 310 311 311 311 312 313 312 312 312 312 312 312 313 312 313 313 313 313 314 315 316 314 313 314 315 314 314 316 318 320 322 321 323 325 324 325 326 326 327 329 330 332 333 335 339
308 308 307 307 307 308 309 309 308 307 306 307 307 309 310 310 311 311 311 311 308 305 306 306 308 309 310 310 309 310 309 308 309 310 310 310 309 308 309 309 309 310 310 310 311 311 312 312 313 313 313 312 312 313 313 313 313 313 313 313 313 314 315 316 314 314 316 315 314 317 318 317 319 321 322 323 323 325 325 325 325 326 327 329 332 334 335 338
306 306 307 306 305 307 308 308 308 307 306 307 307 309 310 311 311 311 311 312 310 306 306 307 307 308 310 310 310 311 311 310 311 312 312 312 311 309 309 308 308 309 310 310 311 312 312 312 313 313 313 313 313 313 313 313 313 313 313 314 314 314 314 315 315 316 317 315 314 318 319 318 318 320 323 324 324 326 327 326 325 325 328 331 334 336 336 337
304 304 306 304 303 306 306 307 308 307 307 309 309 310 311 311 311 311 311 312 313 310 308 309 309 308 308 309 310 311 312 312 313 313 313 314 314 312 310 309 309 309 310 310 311 312 312 312 312 313 313 313 313 313 313 313 313 313 313 314 314 314 314 314 315 316 317 317 317 319 319 319 319 319 324 326 327 325 325 325 324 324 329 332 335 337 337 338
301 302 303 302 302 305 307 308 308 308 309 310 309 310 311 311 311 312 312 312 314 313 311 310 311 309 307 308 310 311 312 313 314 315 315 315 315 314 312 310 308 309 309 310 311 312 312 312 313 313 313 313 313 313 313 313 313 313 313 313 314 314 314 314 315 316 317 317 317 318 318 319 319 319 322 325 324 323 323 323 323 324 327 331 335 337 337 339
299 300 300 300 302 305 308 309 309 309 309 308 308 309 310 310 311 312 312 313 314 315 314 313 314 313 308 307 308 310 311 312 314 315 316 315 315 314 314 312 310 309 309 310 312 313 312 313 314 313 313 313 313 314 314 314 314 314 314 314 314 314 315 315 315 316 316 316 317 317 316 318 319 319 320 321 321 321 322 322 322 323 326 330 333 336 337 338
299 299 299 300 302 305 307 309 309 309 309 309 309 309 310 310 311 312 313 313 314 315 315 314 316 315 312 309 310 311 312 313 314 315 315 314 315 315 314 315 314 311 309 310 312 313 313 313 314 313 313 314 315 315 315 315 315 315 315 315 315 315 315 316 316 316 317 317 316 316 316 318 319 319 320 320 319 320 321 323 323 324 328 330 331 334 336 338
Wind_Speed
13 13 11 11 11 11 12 12 12 13 13 14 14 14 15 15 16 15 15 15 14 15 15 16 17 17 17 17 17 17 16 13 11 10 11 14 16 17 18 20 19 16 15 15 15 15 14 15 15 14 14 16 18 20 21 23 21 16 11 11 13 13 15 14 14 13 8 7 11 12 18 15 14 18 14 9 12 12 6 5 2 2 2 1 3 9 12 8
13 14 13 11 11 11 12 13 13 13 14 14 15 15 14 14 15 16 16 15 15 15 15 17 17 17 17 17 16 17 16 13 14 14 15 18 17 17 18 19 19 16 15 14 12 11 14 15 16 16 17 19 20 21 22 23 23 17 10 12 14 14 16 17 18 16 13 10 8 8 17 14 15 17 12 10 14 12 9 8 7 3 2 2 5 10 11 9
13 13 14 13 12 12 12 13 14 14 15 15 16 16 16 15 15 15 15 16 16 16 16 17 17 18 18 16 17 16 15 16 17 12 15 17 15 15 16 17 18 16 15 15 13 12 14 15 15 18 20 20 22 23 23 23 22 20 16 12 14 17 19 22 23 20 20 13 6 9 16 15 17 19 10 8 15 13 11 11 9 10 9 5 7 10 11 12
13 13 13 13 13 13 12 13 14 14 15 15 16 16 17 17 16 16 15 15 16 17 17 18 18 18 17 18 17 14 16 18 11 5 7 11 11 12 13 14 16 15 13 12 14 14 14 15 16 18 20 19 24 26 24 24 21 19 19 14 15 20 19 23 26 24 24 16 11 13 18 17 17 21 13 9 14 10 9 15 15 10 8 7 8 11 13 14
15 14 13 13 14 13 13 14 14 15 15 16 16 16 16 17 17 17 16 15 16 17 17 18 19 18 18 18 16 14 14 11 0 5 6 11 11 10 10 12 14 12 10 10 14 16 15 16 16 18 20 18 22 23 23 30 26 17 20 22 23 24 19 23 28 26 25 20 18 17 20 20 15 22 21 14 14 9 12 19 20 13 5 7 9 11 13 15
16 16 14 14 14 14 14 15 15 16 16 16 16 16 16 17 18 18 17 17 16 16 17 17 17 17 17 17 15 12 9 7 4 5 11 14 13 9 9 10 10 9 8 10 14 16 17 19 19 20 20 18 20 21 24 32 29 17 18 26 30 29 22 23 26 27 27 23 21 17 20 24 17 21 22 17 17 15 16 14 13 12 7 7 9 11 14 15
16 16 15 15 15 15 15 16 17 17 18 17 17 16 17 17 18 18 18 18 17 17 16 16 16 16 17 16 15 9 12 11 5 7 12 15 12 8 8 7 8 8 8 10 14 17 19 21 22 23 19 17 20 24 27 31 31 22 17 24 29 30 28 28 27 27 30 27 24 20 20 24 20 19 18 19 20 22 19 9 8 10 9 8 9 12 14 15
16 16 16 15 15 16 16 17 18 19 19 19 19 18 18 19 19 19 19 19 19 19 17 16 15 14 16 15 13 10 12 8 1 7 14 13 8 9 10 7 8 8 8 10 14 17 19 22 25 25 18 17 21 24 29 28 26 24 22 25 25 29 32 30 30 29 30 29 27 25 22 23 24 20 18 21 20 22 20 11 11 12 10 10 9 12 14 14
16 16 16 15 15 15 16 17 17 18 19 19 20 19 19 19 20 19 19 19 19 19 18 17 15 14 14 13 11 11 6 4 5 10 11 9 9 11 11 10 9 9 10 10 12 16 19 22 25 26 19 21 24 24 30 25 19 23 27 29 24 29 34 29 30 33 31 28 27 24 22 24 26 20 18 23 21 20 20 14 13 13 12 11 10 13 15 15
15 16 16 16 16 16 16 16 16 17 18 18 19 18 19 20 19 19 19 19 18 18 18 18 16 14 11 10 11 8 4 5 8 8 7 10 12 11 10 11 11 11 12 11 12 16 20 20 21 25 22 22 23 24 29 25 23 27 30 32 28 29 35 31 30 36 34 30 30 23 20 26 26 19 16 21 23 21 17 15 15 14 14 12 11 13 14 16
16 15 16 17 17 17 18 18 18 18 19 19 18 17 18 19 19 19 19 18 18 17 17 17 16 14 9 9 11 8 7 8 8 9 12 15 14 12 11 10 11 12 13 13 13 15 19 20 18 20 19 19 21 24 28 29 30 32 30 30 30 28 33 33 29 33 30 27 33 27 21 27 24 20 18 20 22 19 15 15 19 18 15 14 13 13 14 16
17 16 17 17 18 18 18 18 19 20 20 20 20 18 17 19 19 19 19 18 17 16 16 16 15 11 9 12 16 14 12 13 13 14 17 17 14 13 12 12 12 13 13 14 14 13 16 19 20 20 18 17 18 17 21 31 33 30 31 27 25 26 27 32 32 31 26 24 33 28 20 23 21 22 24 22 19 16 16 17 21 20 18 16 14 14 14 15
18 18 18 18 18 19 19 19 19 20 21 21 22 20 18 20 19 18 19 18 16 16 15 16 14 10 11 16 17 15 15 16 18 18 18 16 13 12 12 13 13 14 14 15 15 13 13 17 21 22 21 19 17 14 13 25 31 26 26 21 18 19 18 30 36 31 26 26 32 25 16 18 20 25 26 23 20 18 18 19 21 21 19 16 15 15 15 15
18 18 18 18 19 19 20 20 21 21 22 22 23 21 20 20 19 19 18 17 16 16 15 15 13 9 13 19 17 16 18 17 17 17 15 11 11 12 12 12 13 14 14 16 15 14 12 15 20 20 22 21 18 19 14 16 22 18 17 17 16 13 14 28 33 28 24 26 32 24 14 15 18 25 27 25 24 20 19 22 23 22 19 17 16 16 16 17
17 18 18 18 19 20 20 20 21 22 23 23 23 22 21 20 19 18 17 16 15 15 14 12 10 8 15 20 16 17 18 14 12 12 9 8 9 10 10 10 12 12 13 14 14 14 13 13 19 19 19 21 18 18 15 11 14 14 14 16 16 13 15 23 26 26 25 24 31 25 14 15 19 22 26 27 28 26 25 26 25 24 21 18 17 16 17 17
17 17 18 18 19 19 20 20 21 22 23 24 23 23 22 19 17 16 17 16 14 12 9 8 8 10 13 12 8 12 13 9 7 6 6 7 8 9 9 9 11 12 12 14 13 13 13 13 19 20 18 18 15 13 12 11 12 14 15 15 17 18 17 18 22 29 31 25 26 26 17 14 16 19 27 30 29 30 27 26 25 23 22 20 19 18 17 17
17 18 19 19 19 20 20 21 21 22 23 23 24 24 20 15 13 13 13 10 9 8 5 8 8 10 14 9 6 10 10 9 7 4 6 6 7 10 10 11 14 14 13 14 14 13 14 15 15 16 17 15 13 13 12 13 14 13 14 15 19 23 19 18 20 25 31 26 23 27 22 17 16 19 27 24 22 29 24 22 22 22 21 21 20 19 18 19
19 20 21 21 21 21 21 20 21 21 22 23 24 21 14 9 10 10 8 5 4 6 7 11 8 7 11 10 9 10 7 7 6 7 8 8 9 11 12 13 13 13 15 14 16 17 16 17 15 11 13 14 13 15 14 16 19 18 17 16 19 22 23 23 19 19 25 25 25 26 23 23 21 22 20 14 20 24 21 20 20 21 22 22 21 20 20 20
20 21 21 22 23 23 22 21 20 20 22 23 22 18 11 8 10 9 7 4 6 8 7 9 13 9 8 7 9 9 8 8 9 11 12 11 12 12 13 13 13 15 16 12 14 19 15 13 14 12 13 16 18 20 20 22 24 24 22 19 18 19 21 23 21 22 23 22 25 26 24 24 23 24 21 17 20 21 20 21 20 21 23 22 21 21 21 21
22 22 22 23 24 23 22 21 20 18 20 21 19 17 13 9 8 5 5 9 13 15 15 13 16 18 19 16 13 11 12 14 15 16 15 13 13 13 14 14 15 16 15 12 12 19 18 12 12 14 17 22 25 27 27 25 25 26 22 19 20 19 19 22 23 25 25 20 22 25 27 25 22 24 25 22 23 21 21 24 22 21 21 21 21 21 21 21
23 23 23 23 24 23 22 21 20 17 17 16 14 13 12 9 7 6 8 13 18 20 22 22 21 23 22 19 17 15 16 18 18 18 14 13 14 14 15 15 15 12 14 17 14 16 18 13 14 20 23 26 27 28 27 25 26 24 19 18 20 19 19 23 24 23 24 22 20 23 24 24 23 23 26 27 24 22 24 24 22 22 20 20 21 22 22 20
24 24 24 23 23 23 22 21 19 17 15 11 8 9 9 9 7 7 9 14 21 22 21 23 23 23 22 20 19 16 17 18 18 19 15 14 16 15 14 15 14 12 14 17 14 13 15 13 19 24 24 25 25 25 25 25 26 21 17 17 16 16 18 21 25 24 22 20 19 22 22 21 23 22 23 25 23 23 28 28 26 25 23 22 22 21 21 20
24 24 24 23 23 23 22 20 17 13 10 6 6 8 9 8 7 7 9 12 19 22 20 19 19 20 19 17 15 14 17 17 16 18 17 17 20 20 17 14 14 15 15 16 14 13 13 15 21 24 24 25 23 23 25 23 21 18 17 15 14 18 19 16 20 25 24 19 17 20 19 16 19 21 21 25 28 26 28 30 29 28 26 24 23 23 22 22
24 25 24 23 23 23 21 17 11 7 5 5 7 9 8 7 7 8 11 12 16 18 16 13 13 14 13 10 8 12 16 16 15 17 15 18 22 20 18 16 16 15 15 18 20 18 16 18 23 24 23 24 23 23 24 20 15 19 22 17 13 18 20 16 18 25 24 18 16 18 16 13 16 20 19 21 27 26 26 28 29 29 27 24 24 26 23 23
24 25 24 23 23 23 20 12 6 4 5 7 8 7 6 7 7 8 10 11 11 10 11 10 8 8 8 6 6 10 13 15 17 17 14 20 23 18 17 18 15 14 18 21 21 17 18 22 23 23 23 25 24 21 23 20 13 17 22 19 18 20 21 21 21 22 17 12 16 19 14 11 15 21 19 16 20 23 22 23 26 28 27 25 27 28 24 23
24 24 24 23 21 21 16 8 4 7 8 7 5 5 6 7 8 8 7 7 5 4 9 9 7 5 5 6 7 9 10 11 16 18 17 19 23 20 16 15 13 15 19 18 14 11 15 23 23 22 24 27 24 20 23 22 13 13 18 19 23 23 20 22 22 18 12 11 17 20 15 10 13 19 18 15 18 20 19 19 23 27 27 28 29 27 24 24
24 24 24 21 19 17 12 7 8 8 7 6 4 5 7 7 8 8 5 6 4 3 5 6 4 2 3 5 6 8 6 5 10 16 19 18 20 22 17 14 13 14 15 13 11 10 15 23 24 23 25 24 21 18 21 24 16 12 15 20 24 21 20 24 22 16 11 11 15 19 17 11 12 15 17 20 22 20 20 21 22 25 28 29 28 27 25 25
25 25 22 19 16 13 9 9 8 6 6 6 5 6 7 7 8 6 5 6 1 2 2 4 3 2 5 5 7 12 13 11 9 8 15 17 20 21 17 16 16 15 17 14 11 13 18 23 22 22 22 18 18 19 21 24 19 13 16 20 21 17 18 21 19 14 13 12 12 17 18 12 12 14 16 22 24 21 23 24 22 24 28 28 27 27 26 26
25 24 20 16 13 10 7 6 6 6 6 6 5 6 7 7 6 5 5 5 1 1 1 2 3 3 4 5 9 15 17 16 11 4 10 17 20 20 16 17 18 16 19 18 14 14 17 20 21 20 17 17 21 22 22 23 18 16 18 18 17 16 16 15 14 13 13 13 14 17 18 12 11 14 15 17 20 21 22 21 20 23 28 29 28 28 26 25
24 21 16 13 10 8 7 5 6 6 6 6 5 6 7 5 4 5 4 3 2 2 4 1 3 1 3 7 11 13 13 16 17 12 11 14 20 21 16 17 18 14 15 19 18 15 16 20 20 18 16 18 21 22 21 21 18 18 17 15 15 15 13 10 11 11 11 12 16 19 21 16 11 11 14 15 16 18 18 16 18 23 28 29 29 28 26 25
23 18 12 9 7 4 3 4 6 5 4 6 5 4 7 4 3 5 3 3 4 5 5 3 2 4 9 12 11 10 10 12 17 16 12 10 16 19 14 13 13 10 11 15 16 15 16 17 15 15 19 20 18 19 20 21 21 20 15 12 12 11 10 9 9 11 11 12 16 20 24 21 13 10 13 17 20 18 16 17 20 22 26 29 29 27 27 27
20 13 8 7 6 3 2 3 4 4 3 4 3 3 4 4 4 5 4 6 5 4 4 3 5 9 14 14 13 13 11 9 13 14 11 9 11 13 12 10 9 10 10 11 13 12 11 12 12 15 21 23 19 17 19 18 18 18 14 13 13 11 10 11 10 10 12 13 14 19 23 18 12 12 14 17 21 19 16 17 20 23 26 29 30 28 27 27
17 10 7 7 6 5 3 4 3 2 2 2 4 5 4 5 4 3 5 6 2 4 5 5 9 13 15 14 12 12 10 9 11 12 11 11 11 12 15 14 13 12 9 10 12 10 7 9 15 17 17 22 21 16 15 15 16 17 16 15 14 12 11 12 11 11 12 13 14 18 18 13 11 15 18 18 17 18 20 21 23 26 29 30 30 29 28 28
14 7 6 6 4 4 4 4 2 2 3 3 6 6 5 7 6 6 7 5 4 8 10 10 13 17 15 12 11 9 7 9 12 12 10 11 10 10 13 15 17 14 8 10 9 9 10 8 14 19 13 16 21 17 16 16 16 17 17 15 15 12 10 10 11 11 12 11 14 15 12 12 13 9 12 19 18 14 19 23 24 26 30 31 30 30 29 27
11 6 6 7 5 4 4 3 3 2 2 4 5 5 5 6 5 7 7 5 6 9 12 15 16 15 11 7 10 8 5 6 10 11 8 10 9 9 11 12 17 15 9 9 8 9 12 9 13 20 16 17 20 18 18 18 14 15 16 14 14 12 10 8 9 9 9 9 11 10 8 10 10 1 2 12 17 13 13 18 21 23 27 29 28 29 28 27
8 4 4 6 7 5 3 3 3 2 3 5 5 4 5 6 5 7 6 6 8 10 13 15 10 8 7 5 7 4 6 4 8 8 6 9 9 10 10 10 14 15 11 8 6 9 11 8 14 21 19 20 20 17 18 17 13 12 15 15 14 15 12 9 8 4 5 9 9 9 9 9 7 5 4 9 15 15 14 15 18 20 24 27 27 28 27 27
5 3 3 4 7 5 3 4 2 2 3 4 4 5 6 7 6 7 7 9 11 10 10 9 4 4 6 5 5 4 7 6 6 5 5 7 7 9 11 10 13 16 14 10 6 9 9 6 15 22 18 20 22 20 18 20 16 12 13 15 15 15 12 8 8 6 7 10 7 10 14 12 9 8 9 11 14 13 14 15 17 19 23 24 24 27 27 27
4 3 3 2 5 4 3 4 2 3 3 4 6 7 7 7 9 10 10 10 10 7 6 5 2 2 4 6 6 0 5 4 4 4 5 6 4 10 13 10 10 14 15 13 7 8 9 5 11 20 17 18 21 19 15 19 21 15 13 14 12 12 11 9 9 8 10 10 8 12 14 12 11 8 9 14 15 13 14 16 17 18 20 20 22 25 26 27
5 4 3 1 4 3 2 2 2 4 4 3 5 6 5 7 11 13 12 9 7 5 5 4 3 2 3 6 9 5 2 0 2 3 3 4 4 9 12 8 9 14 15 12 6 6 9 4 7 16 18 17 16 14 11 14 17 16 14 14 12 10 10 10 8 8 9 9 8 12 12 9 10 10 11 15 16 16 16 15 15 16 19 21 22 24 26 26
6 5 2 1 5 3 1 2 4 5 5 4 6 7 8 9 11 14 14 9 4 4 3 4 5 5 5 8 10 5 2 1 1 2 2 5 5 7 10 7 9 14 16 13 6 5 7 5 4 12 16 14 12 12 12 14 14 14 13 14 13 10 10 10 9 9 9 8 7 8 9 8 7 9 12 14 15 15 16 15 14 15 20 23 23 23 25 26
7 5 1 3 7 3 2 3 5 6 5 5 7 8 10 10 10 14 13 7 5 6 6 8 8 7 7 8 8 5 2 1 3 3 3 6 4 3 9 10 9 13 13 9 6 6 6 5 5 9 11 11 12 14 15 16 16 14 12 14 15 13 12 11 11 11 9 8 8 7 7 6 5 8 10 10 12 12 15 15 13 15 21 24 23 23 23 24
8 4 1 7 10 4 3 5 6 6 5 6 8 10 12 11 9 11 9 6 6 6 7 8 8 7 7 6 7 7 5 2 4 5 5 6 4 2 10 14 12 13 11 7 7 6 2 2 6 10 10 12 16 17 17 18 19 15 12 14 14 12 12 10 9 10 9 10 10 9 8 4 3 5 7 8 9 11 14 15 14 16 20 22 23 23 23 24
8 4 2 9 10 3 5 6 5 5 4 8 12 13 13 9 7 8 7 6 5 2 4 6 7 6 5 4 6 7 6 3 4 6 5 6 5 4 12 17 15 14 10 7 8 6 2 2 7 9 10 12 15 16 16 17 17 14 11 13 13 13 14 12 10 9 9 11 10 8 9 5 5 3 5 7 9 11 13 14 13 14 17 20 23 23 22 23
10 5 3 6 5 1 4 5 5 5 8 13 14 14 12 7 5 6 6 5 4 2 4 5 6 7 5 5 7 7 6 4 3 5 4 4 4 5 13 19 16 12 9 6 6 6 4 5 7 7 9 11 12 12 13 14 13 12 12 14 14 16 18 14 10 10 9 12 12 8 7 7 6 4 5 7 10 11 10 10 7 5 6 12 17 19 20 21
11 7 3 3 2 2 4 5 6 6 9 13 13 14 13 8 7 5 5 5 3 4 6 6 7 8 8 8 8 8 8 5 4 4 4 2 4 5 10 17 15 11 8 5 4 5 5 4 5 7 9 11 10 10 11 13 12 10 14 18 17 17 19 14 10 10 9 12 13 10 7 7 7 6 8 9 10 10 9 9 7 6 4 5 10 15 17 20
10 4 0 2 4 5 8 7 5 6 8 10 10 12 12 11 12 6 2 3 4 4 6 8 9 8 7 8 7 6 6 7 6 3 4 3 4 5 9 14 15 14 11 5 6 6 5 4 6 9 7 9 11 11 12 14 13 13 17 21 20 18 19 16 11 10 9 9 10 10 10 9 9 9 9 10 9 8 9 9 9 8 7 8 11 15 17 20
8 5 5 4 4 6 7 5 4 6 8 8 7 8 12 14 13 8 4 2 8 9 2 5 7 7 6 6 7 7 5 6 7 5 4 4 2 5 9 13 15 13 11 6 9 7 4 5 8 11 10 7 9 12 15 16 17 17 19 21 20 20 20 17 13 12 11 9 9 11 13 11 8 10 11 11 10 10 9 8 8 7 7 8 12 17 20 22
6 6 6 5 4 5 3 5 8 10 11 10 5 7 12 15 14 11 8 2 9 11 3 2 5 8 8 7 5 7 6 5 5 4 4 5 3 5 7 10 13 13 8 7 9 6 5 6 9 10 10 10 11 12 16 17 17 18 19 20 21 21 21 18 15 15 14 10 8 10 14 14 10 7 9 8 6 7 8 6 4 3 5 8 11 17 21 22
8 8 6 7 6 9 10 11 11 11 12 10 6 7 11 14 15 14 11 7 2 5 7 4 5 6 8 9 6 7 7 3 2 2 3 4 4 3 6 7 10 13 11 8 8 6 5 5 7 10 10 10 11 8 11 13 16 18 20 20 20 20 19 17 16 16 16 14 10 8 11 13 11 8 7 10 6 3 3 2 2 3 4 8 11 16 20 23
8 6 8 12 12 13 13 11 9 9 9 7 5 8 12 14 15 15 13 11 10 2 6 5 7 8 8 8 7 8 10 7 4 4 2 3 4 2 3 5 7 12 12 8 6 7 5 4 6 8 8 9 10 8 8 12 15 17 19 20 20 20 18 16 15 14 14 14 12 11 11 9 8 9 7 5 4 4 5 5 6 5 5 7 11 14 19 21
8 6 9 12 10 9 10 8 7 7 6 6 7 9 12 14 16 17 14 10 10 7 5 9 10 5 9 9 9 10 13 12 10 8 6 5 4 2 2 4 4 8 12 9 6 7 6 4 5 6 6 8 9 9 9 10 12 14 17 20 21 20 17 15 14 13 13 13 14 12 10 7 6 6 8 7 6 7 6 7 8 8 7 7 11 14 18 20
9 7 7 9 8 9 10 8 7 7 6 7 9 10 13 15 17 16 12 8 9 12 12 13 13 7 4 9 10 12 14 13 12 11 10 10 10 7 7 9 8 5 9 9 6 6 7 5 4 6 6 5 7 9 8 8 10 11 13 16 18 17 16 15 14 15 15 13 11 10 9 8 7 7 7 7 7 7 6 7 8 7 7 8 10 14 17 19
Wind_Direction
357 355 353 350 349 349 350 350 349 348 345 345 343 343 342 339 338 335 337 336 335 336 334 337 335 335 340 342 348 345 339 336 325 314 284 258 248 249 252 258 260 255 251 248 244 243 246 243 237 229 226 226 226 231 231 230 227 225 228 232 234 233 235 236 239 238 226 164 147 194 215 216 226 220 225 240 249 256 237 208 171 25 358 41 98 141 161 177
354 351 349 347 345 344 348 346 344 344 342 341 338 338 337 335 333 329 330 329 330 331 329 332 330 335 341 342 351 346 340 336 316 295 266 261 261 258 255 258 261 255 245 239 237 241 242 238 230 222 219 225 224 224 228 225 222 226 229 230 230 233 236 237 243 241 228 201 149 215 227 210 235 235 209 231 245 238 238 222 186 201 253 172 151 154 159 175
352 350 348 347 346 343 346 342 340 341 339 338 335 335 333 331 329 324 324 323 325 325 326 326 326 335 338 343 350 347 342 326 309 280 255 270 276 264 256 255 257 253 243 232 227 234 240 238 231 222 219 226 224 221 224 221 220 225 228 234 230 231 238 240 242 242 235 218 182 237 233 210 233 243 198 211 250 236 237 244 218 203 210 196 171 171 167 171
351 351 348 347 345 342 340 336 337 337 335 335 333 333 331 330 327 324 321 318 320 319 323 322 326 334 336 342 346 353 341 314 298 221 241 296 303 280 263 253 253 250 244 239 234 232 238 240 236 228 223 226 225 223 224 220 220 222 227 235 234 233 234 237 238 241 240 222 207 234 242 223 224 245 229 212 245 235 229 248 254 240 202 192 187 184 178 173
349 350 347 345 343 341 337 334 335 334 333 332 331 330 329 330 327 326 323 318 318 317 319 320 325 331 333 338 344 354 331 304 48 176 256 319 326 310 284 263 257 250 242 248 244 233 232 234 232 230 226 226 223 223 224 220 221 225 230 235 237 239 236 234 235 239 240 225 211 217 238 235 218 242 239 223 242 236 221 229 239 249 227 194 199 195 186 181
347 346 344 342 341 340 337 335 335 332 332 330 328 327 327 328 326 326 323 319 316 315 317 318 324 328 330 335 343 349 304 298 31 236 272 314 312 307 300 281 270 267 262 254 242 229 225 223 222 223 222 226 224 222 224 220 222 228 232 233 235 239 242 240 234 236 240 229 219 212 232 238 222 236 235 225 241 243 233 224 216 229 247 219 199 201 194 186
343 343 340 338 337 337 336 333 332 330 329 327 325 324 324 325 323 322 321 319 315 312 315 315 322 326 326 334 344 328 265 285 327 244 279 309 304 290 284 290 296 289 279 257 235 223 220 216 216 219 220 225 224 225 226 222 223 228 233 231 232 236 238 243 239 235 236 231 227 224 234 239 229 233 230 223 234 240 236 211 201 227 251 239 205 205 200 188
342 342 339 336 334 333 331 329 328 326 325 323 322 322 324 323 320 319 317 316 314 312 312 311 319 322 328 343 343 311 268 270 278 265 291 308 310 287 269 280 298 285 273 258 233 224 221 218 216 217 222 226 224 225 226 225 224 225 233 232 232 235 232 239 243 238 235 231 227 228 235 239 235 236 233 226 225 234 234 203 210 231 242 239 216 207 198 188
343 343 342 338 335 332 329 328 327 325 323 320 320 321 322 321 318 316 313 311 309 310 310 310 314 317 332 343 318 300 277 220 244 279 299 316 312 289 274 270 272 271 270 260 240 231 225 223 219 218 226 231 228 228 225 226 225 221 231 232 229 238 233 232 239 241 242 235 227 228 235 239 236 235 236 235 228 229 227 208 217 231 235 232 214 207 195 188
344 342 340 336 334 332 329 328 326 324 322 319 320 321 321 319 316 313 308 306 304 305 306 307 312 317 333 327 293 280 258 250 270 284 299 304 300 293 286 269 257 260 262 256 246 236 230 230 225 223 232 237 234 233 226 225 229 226 230 231 228 238 237 228 229 236 241 238 234 231 236 242 234 228 234 232 232 236 221 206 228 243 240 226 207 206 194 188
342 340 335 333 333 332 330 330 327 325 324 320 322 325 320 316 313 309 303 301 299 300 301 302 308 315 320 296 269 259 264 277 287 291 293 293 292 288 279 264 256 254 252 253 250 240 236 237 234 229 230 235 236 236 232 229 232 229 231 233 227 233 237 231 229 230 232 234 236 234 239 244 233 226 233 227 226 230 218 217 239 246 241 225 207 206 196 189
341 339 335 333 332 330 328 328 327 325 324 320 323 328 323 317 313 306 299 297 297 298 297 299 304 306 300 274 253 254 271 281 287 285 285 286 285 279 267 260 255 250 247 248 248 245 241 237 238 238 228 228 233 237 237 231 231 230 232 235 225 225 232 233 234 228 226 234 232 233 241 239 231 228 231 230 219 202 205 225 240 243 237 225 209 206 203 192
342 338 334 331 328 325 324 324 324 324 322 318 322 327 323 319 314 305 298 296 297 297 295 295 296 291 280 267 254 262 277 279 282 282 282 283 278 271 264 258 251 247 244 242 246 249 249 237 236 242 239 236 230 231 244 230 227 228 229 233 227 226 225 228 233 225 224 235 229 228 239 234 230 232 229 228 214 189 199 223 235 240 238 226 212 206 206 197
342 337 332 329 326 323 321 321 322 322 321 319 322 324 323 320 313 305 298 296 296 292 290 287 286 278 262 264 269 276 276 276 278 276 278 274 262 265 261 251 247 245 239 238 244 248 256 242 234 243 246 245 236 229 237 228 223 222 222 227 226 229 226 223 225 219 220 230 225 225 240 237 232 232 227 222 214 203 212 225 231 236 234 226 215 207 204 198
339 335 332 329 326 323 320 320 320 318 318 318 320 321 321 317 310 304 299 297 293 289 289 284 275 257 261 272 279 277 276 280 272 260 256 249 248 258 255 245 242 241 236 234 237 241 251 241 230 236 240 241 239 229 224 220 219 212 215 223 218 224 231 221 215 214 220 224 221 225 237 236 237 237 229 219 209 206 219 227 229 229 225 221 215 210 206 197
335 333 331 327 323 320 317 316 315 315 315 314 317 319 319 316 313 309 304 298 295 294 283 265 253 244 264 285 274 265 270 259 243 235 230 236 242 250 257 257 247 244 237 230 229 233 238 235 227 229 233 231 228 225 217 211 215 209 214 218 211 217 226 219 207 208 219 224 220 223 233 236 236 236 238 235 208 195 214 226 224 222 216 215 214 211 206 198
332 330 328 324 319 316 314 312 311 311 313 313 316 319 320 317 318 319 317 319 320 316 262 240 260 252 251 262 270 275 264 231 220 234 238 238 243 255 264 261 252 245 233 224 223 224 225 225 222 223 229 225 213 217 214 207 208 204 209 217 217 217 220 221 213 207 212 218 219 221 229 236 235 232 239 239 196 185 210 222 216 215 212 212 215 211 207 201
326 325 323 319 315 311 309 309 308 307 310 314 317 320 326 318 313 314 318 349 333 289 253 234 244 254 240 239 266 282 259 223 233 247 247 248 252 259 259 254 254 241 224 218 215 215 214 214 216 214 218 219 212 212 212 206 204 200 203 214 219 217 220 221 217 211 207 209 220 224 226 228 232 239 230 193 174 188 209 219 215 214 215 217 216 212 208 204
326 324 323 321 320 313 307 304 305 308 310 315 320 324 327 304 293 285 263 265 238 240 258 216 202 237 286 283 274 268 247 241 253 255 253 255 255 254 248 247 251 237 222 213 205 206 206 206 212 214 209 210 210 210 213 211 207 208 209 213 218 219 224 222 219 221 212 207 218 223 230 225 219 234 227 183 184 200 208 218 224 222 223 222 216 213 210 207
328 327 327 326 326 322 315 308 303 308 313 319 328 328 325 308 287 263 240 258 246 250 278 266 234 255 282 288 281 271 261 259 258 256 253 251 245 242 242 237 237 235 224 218 204 197 203 209 210 212 210 208 210 213 216 218 218 218 217 219 221 222 226 223 221 222 217 217 215 215 234 232 214 227 230 207 195 200 211 221 227 228 227 223 215 211 210 209
331 331 330 328 327 325 323 319 309 307 313 322 327 323 331 338 318 318 323 290 264 261 273 274 265 265 272 275 277 278 274 269 261 254 251 242 231 230 233 225 224 227 219 222 218 197 203 217 213 212 215 213 213 216 218 221 226 225 221 222 223 224 226 223 221 218 218 229 223 213 230 234 220 224 228 220 207 200 212 220 224 228 228 226 223 214 211 210
333 332 331 329 329 326 323 324 319 312 312 315 313 310 325 334 319 313 316 294 280 276 269 265 266 264 266 266 265 267 266 264 260 253 243 230 224 220 218 215 219 225 215 217 221 207 207 219 217 213 217 218 217 217 219 222 225 227 224 224 223 221 223 223 220 214 215 231 227 218 227 230 226 226 223 225 223 208 207 216 225 229 228 227 230 223 212 207
332 331 330 330 327 324 323 325 327 324 318 310 295 300 309 312 307 300 291 285 285 282 265 254 257 258 259 259 252 244 248 255 259 254 237 221 220 219 220 219 219 226 220 211 215 217 212 214 217 216 215 218 219 215 216 220 223 225 226 225 225 221 217 218 217 214 217 225 220 219 227 226 223 228 224 223 230 220 204 214 226 227 228 228 230 229 216 204
331 331 330 330 325 323 327 332 339 344 329 306 295 292 295 300 304 305 295 281 278 275 258 243 250 256 254 256 241 229 242 252 255 256 239 222 220 217 223 230 225 225 223 215 215 221 223 215 214 218 216 215 219 216 214 217 218 222 226 225 225 222 217 215 214 214 218 218 212 218 229 227 217 223 225 219 228 225 204 209 222 221 223 227 228 228 219 206
332 332 330 329 326 325 334 343 350 342 319 301 300 293 290 300 301 305 300 282 271 253 227 217 228 238 233 230 220 230 253 257 252 253 240 226 223 217 220 228 230 228 221 218 218 221 226 220 212 215 216 212 216 217 213 213 213 219 223 223 225 227 221 218 214 209 211 208 206 213 226 229 218 224 227 215 222 224 203 203 217 216 213 217 224 223 213 206
333 334 332 329 326 329 339 351 321 314 319 307 300 293 292 304 303 302 298 279 273 187 173 188 203 201 206 213 215 239 260 260 254 246 232 224 223 222 223 220 225 233 224 217 218 222 223 222 215 210 210 210 214 219 212 208 213 216 211 215 225 226 220 215 207 196 199 210 204 207 223 234 226 227 224 217 223 218 203 206 214 213 208 208 216 216 204 202
335 336 334 330 329 330 326 315 307 313 314 304 308 305 299 305 304 303 290 266 260 169 155 167 186 209 234 228 222 238 255 279 269 242 224 219 217 221 229 222 218 229 228 219 216 217 219 222 216 207 208 207 209 217 207 203 214 216 198 207 221 221 217 213 206 196 198 213 207 203 215 234 236 228 215 216 224 214 206 212 211 207 206 205 208 206 200 200
336 337 335 333 334 330 306 289 299 309 296 296 312 307 298 303 306 299 276 275 254 161 168 149 161 257 259 251 244 250 266 280 280 245 218 215 211 215 226 230 225 221 219 221 218 211 217 221 212 205 210 209 206 211 206 204 213 213 196 201 212 217 222 216 210 209 202 208 216 203 205 225 239 229 217 218 220 213 211 212 208 204 202 201 202 201 198 198
336 337 336 336 339 344 331 304 299 295 286 294 297 290 294 302 304 280 253 279 285 156 359 135 180 229 237 254 257 260 273 274 267 241 212 214 211 214 225 232 236 230 217 222 228 214 215 221 213 206 212 210 204 202 207 210 208 208 202 195 199 213 223 215 209 213 206 213 228 212 201 214 236 227 222 222 215 211 215 212 207 205 200 198 199 199 197 195
335 337 337 341 351 358 348 335 321 302 282 284 281 286 296 295 286 262 240 276 321 23 9 224 188 213 256 272 269 259 265 268 260 238 216 215 210 215 227 230 236 241 223 221 229 223 219 220 215 212 214 211 203 198 206 210 204 210 209 192 195 207 213 212 211 212 209 218 227 219 209 212 232 228 218 225 221 210 211 211 206 203 200 197 196 196 195 193
335 338 340 344 354 1 342 343 340 323 298 287 280 288 288 280 263 253 265 314 310 351 354 294 326 314 275 279 282 265 253 256 251 228 210 209 204 207 219 222 226 234 223 217 221 224 226 221 211 210 214 209 201 201 207 205 203 213 209 188 194 199 199 210 212 211 219 222 218 219 221 218 224 230 217 222 225 212 204 208 204 199 199 196 193 195 193 193
335 337 342 350 353 2 343 325 336 332 312 289 274 284 274 265 246 232 284 318 301 347 360 291 298 290 277 282 282 273 266 256 246 230 210 203 203 202 206 206 203 208 212 209 206 210 225 231 216 208 212 209 201 199 203 199 201 210 202 190 195 187 188 203 202 205 220 226 218 215 222 221 221 233 232 228 224 209 200 211 207 195 197 198 193 193 192 192
336 337 345 1 359 354 324 293 311 315 321 303 270 271 260 266 279 269 298 312 318 336 312 267 277 283 282 283 279 274 265 246 236 230 212 200 204 203 202 206 206 208 210 203 197 194 207 233 220 206 207 212 208 198 193 190 197 204 197 196 199 184 182 193 193 202 213 221 222 212 212 221 226 230 229 231 233 209 196 211 212 195 196 201 197 193 190 191
336 344 1 9 350 321 304 287 275 270 301 302 271 266 261 268 292 318 310 306 326 321 307 299 297 291 285 281 282 274 253 233 214 206 202 199 205 204 198 205 211 216 217 198 192 193 201 222 215 203 198 204 208 205 192 185 191 202 199 199 204 193 186 188 187 201 206 206 212 206 204 217 223 228 217 221 234 218 195 206 211 199 196 200 199 195 191 190
339 359 10 0 336 302 298 285 256 256 283 284 272 266 267 273 296 319 321 325 330 325 313 307 300 291 288 288 278 252 211 231 212 196 202 201 201 204 197 201 209 216 219 197 185 196 209 216 199 196 197 197 203 204 191 185 190 199 199 202 206 198 188 188 195 207 207 204 205 201 213 221 211 196 176 215 225 209 189 203 207 200 196 194 196 196 193 190
340 356 354 342 327 305 291 280 252 240 262 272 271 261 270 290 314 322 334 340 325 320 314 311 306 299 315 328 287 220 153 213 207 183 204 207 206 212 204 201 204 211 218 207 186 188 207 212 186 189 197 195 200 201 189 189 194 191 197 204 204 200 194 187 199 208 197 208 203 190 212 223 207 195 181 216 225 199 183 204 206 199 195 191 193 195 192 190
338 329 303 309 317 304 273 276 254 219 256 259 256 272 294 308 316 314 317 316 312 314 315 316 333 337 338 336 296 184 158 200 191 166 206 203 208 223 216 209 203 206 216 222 213 192 201 204 181 187 191 185 198 208 196 198 205 192 194 204 204 206 206 196 199 193 188 206 202 187 205 214 212 210 185 200 223 199 182 201 204 198 196 191 190 191 189 190
339 307 256 266 320 308 253 255 223 214 252 246 248 267 286 303 312 313 311 310 309 308 306 303 316 341 330 322 316 150 152 187 171 172 203 184 196 216 210 208 204 204 212 223 233 207 206 202 177 188 189 176 194 212 199 199 213 207 194 203 208 208 204 198 200 196 192 204 203 193 203 212 215 207 173 186 210 204 194 203 202 196 193 188 186 187 187 188
337 295 237 247 337 318 239 227 190 222 245 254 269 279 294 307 309 310 316 320 307 292 293 286 266 263 285 313 326 343 29 277 168 180 192 163 179 201 197 202 204 201 206 215 234 218 201 192 177 192 191 174 184 208 196 189 207 210 200 201 209 214 206 198 199 198 197 203 206 200 201 212 218 208 185 185 197 206 205 202 200 195 188 187 188 186 186 187
314 281 219 312 334 319 232 202 210 231 244 270 290 295 304 308 302 301 309 313 281 250 274 284 280 288 302 318 322 314 329 2 203 246 235 178 176 188 191 200 202 200 204 206 225 238 201 191 194 189 184 176 182 201 198 186 192 202 200 196 198 206 207 205 206 205 204 205 206 207 207 207 206 208 204 189 185 201 207 199 198 197 190 189 190 188 188 187
296 284 114 353 331 323 227 212 222 243 263 284 296 298 299 301 296 298 304 300 254 235 250 274 286 301 308 310 317 319 329 342 199 239 259 205 202 199 192 200 206 203 201 196 216 241 205 189 206 185 176 182 187 192 197 195 194 199 200 195 195 199 201 206 208 204 209 214 202 203 219 214 186 196 208 189 176 195 206 199 198 200 196 190 186 188 189 186
294 307 16 327 332 328 248 245 240 244 254 286 302 303 301 298 287 295 308 297 268 243 245 266 277 293 308 310 327 335 319 290 202 223 244 216 231 234 186 193 204 202 197 196 209 219 185 182 204 187 180 187 184 187 199 200 198 206 214 203 196 197 202 207 203 196 207 218 205 200 213 211 114 159 180 170 170 185 193 194 200 203 200 193 187 189 190 185
313 333 290 308 332 334 260 275 273 256 282 320 321 314 310 304 282 289 309 302 285 226 225 263 275 278 293 306 316 317 300 276 222 225 222 201 214 195 178 188 199 196 194 208 202 178 122 206 203 182 176 186 183 185 202 205 196 202 217 212 200 196 202 212 209 197 208 217 208 203 203 172 91 120 170 171 182 189 185 186 196 201 199 197 195 191 184 180
314 303 258 292 326 313 258 297 318 302 316 328 327 324 322 321 300 287 282 285 301 279 250 264 277 277 286 290 285 286 287 274 233 240 235 188 161 151 176 191 197 190 186 207 198 173 178 202 199 183 169 177 181 180 196 208 202 198 207 214 214 204 201 212 219 208 211 217 216 218 203 165 124 148 179 182 193 199 183 165 162 160 176 193 190 178 172 177
297 273 221 231 233 239 265 296 312 298 313 321 318 325 331 338 345 322 258 249 264 276 286 291 286 284 284 280 272 269 269 252 227 261 273 204 129 131 179 192 199 193 183 214 226 193 204 211 202 197 174 170 181 181 186 196 199 204 205 208 215 211 203 206 215 212 208 209 216 224 206 159 132 157 180 180 190 190 166 153 155 147 144 179 179 170 175 182
306 303 31 209 204 229 250 264 286 285 311 320 314 328 337 335 340 345 271 244 202 212 282 297 297 293 277 272 284 284 262 236 223 245 259 219 156 150 177 189 204 196 167 186 249 221 216 230 223 229 213 182 181 185 190 195 199 205 203 202 207 212 211 209 208 215 212 203 211 224 214 178 148 160 176 172 172 165 151 155 165 166 172 193 192 185 188 188
302 326 1 344 271 247 237 244 307 308 309 314 311 319 322 324 333 347 347 280 175 173 243 302 290 290 290 300 311 302 268 227 222 233 251 256 191 147 170 188 208 201 160 175 232 228 237 229 219 241 252 226 199 191 188 194 204 208 204 202 204 210 216 216 210 214 216 211 209 210 216 213 184 166 166 166 167 157 151 156 154 156 175 195 195 187 189 190
331 328 357 7 303 280 296 321 330 322 304 293 281 289 305 321 334 342 347 351 167 170 180 295 268 271 292 307 304 293 283 240 227 236 241 252 229 159 172 190 206 208 196 206 214 214 255 238 210 227 243 240 233 207 183 187 203 208 207 207 205 206 212 215 216 216 214 219 217 199 204 219 225 192 152 140 149 141 131 133 130 154 185 191 193 187 186 190
356 328 351 12 318 290 295 301 308 311 296 279 267 292 316 328 334 336 338 338 302 185 182 208 249 249 277 293 283 276 280 265 247 255 241 269 272 204 187 192 196 199 206 220 210 206 248 249 218 221 223 229 239 215 179 190 204 206 208 210 208 208 210 213 220 223 218 221 232 234 219 212 222 226 160 114 100 115 131 164 230 242 204 188 193 191 189 190
5 338 334 334 313 288 282 285 292 300 302 304 314 326 331 331 334 338 334 329 335 324 176 230 258 215 217 263 269 260 267 281 295 280 282 313 309 275 202 194 188 189 197 215 214 202 220 246 238 231 222 224 230 217 197 205 208 206 207 208 208 211 212 211 216 222 221 220 228 250 253 220 204 233 228 159 154 206 231 250 251 253 235 200 197 198 196 194
1 335 316 316 311 295 292 299 302 300 317 347 344 329 327 329 332 333 328 328 333 329 301 293 288 224 188 218 238 246 259 271 270 264 274 272 262 289 273 249 223 190 192 206 210 197 211 255 255 233 224 224 224 224 225 222 218 215 212 208 206 207 209 208 209 211 214 218 221 230 244 232 205 230 250 247 234 228 235 248 246 244 242 221 206 205 203 198
350 339 326 316 299 286 293 302 303 306 329 347 335 321 317 321 326 327 327 328 321 320 321 312 311 318 202 205 226 237 243 255 260 263 274 265 252 254 255 262 275 238 197 202 208 203 211 234 250 230 226 228 223 225 235 232 226 225 219 214 211 210 209 208 208 210 212 218 225 223 225 236 245 252 254 252 250 247 245 245 242 239 240 232 216 211 208 201